Regional Weather Roundup
Issued by NWS

Home | Current Version | Previous Version | Graphics & Text | Print | Product List | Glossary On
Versions: 1 2 3 4 5 6 7 8 9 10 11 12 13 14 15 16 17 18 19 20 21 22 23 24 25 26 27 28 29 30 31 32 33 34 35 36 37 38 39 40 41 42 43 44 45 46 47 48 49 50
000
ASUS43 KIND 242109
RWRIN

WEATHER ROUNDUP FOR INDIANA
NATIONAL WEATHER SERVICE INDIANAPOLIS IN
500 PM EDT TUE APR 24 2018

NOTE: "FAIR" INDICATES FEW OR NO CLOUDS BELOW 12,000 FEET WITH NO
SIGNIFICANT WEATHER AND/OR OBSTRUCTIONS TO VISIBILITY.

* - STATION DOES NOT REPORT WEATHER SUCH AS PRECIPITATION OR FOG.

+ - STATION NOT QUALITY CONTROLLED BY THE NATIONAL WEATHER SERVICE.
    USE DATA WITH CAUTION...ESPECIALLY DEWPOINT AND RELATIVE
    HUMIDITY OBSERVATIONS.

INZ001>003-010>013-019-020-242200-
NORTHWEST INDIANA

CITY           SKY/WX    TMP DP  RH WIND       PRES   REMARKS
KNOX *+        CLOUDY    59  50  72 NE7       29.96F
LA PORTE +     PTSUNNY   56  49  77 N10       29.98F
MICHIGAN CITY+ CLOUDY    52  46  82 N7        30.00S
MONTICELLO +   CLOUDY    58  50  74 N8        29.95F
RENSSELAER +   CLOUDY    61  46  59 NE12      29.96S
VALPARAISO     CLOUDY    61  50  67 N9G18     29.98F

$$

LMZ046-743>745-242200-
SOUTHERN LAKE MICHIGAN

STATION/POSITION TIME  TEMP    WIND        PRES    WAVE
                       AIR SEA DIR/SP/G            HT
                 (UTC) (F)     (DEG/KT/KT) (MB)    (FT)
BURNS HARBOR     2040   45      30/  5/  6 1016.6F
MICHIGAN CITY    2040   43      40/  6/  7   N/A

$$

INZ004-005-014>016-021>024-242200-
NORTH CENTRAL INDIANA

CITY           SKY/WX    TMP DP  RH WIND       PRES   REMARKS
ELKHART        CLOUDY    59  48  67 NE9       29.97F
GOSHEN         CLOUDY    57  49  74 E9        29.97F
LOGANSPORT +   CLOUDY    57  50  77 NE8       29.95F
PERU/GRISSOM   CLOUDY    55  55 100 E7        29.94S
ROCHESTER +    CLOUDY    59  52  77 N5        29.96F
SOUTH BEND     CLOUDY    62  49  62 VRB6      29.97F
WARSAW +       CLOUDY    55  50  82 E9        29.96F

$$

INZ006>009-017-018-025>027-242200-
NORTHEAST INDIANA

CITY           SKY/WX    TMP DP  RH WIND       PRES   REMARKS
ANGOLA *+      PTSUNNY   54  52  94 NE8       29.97S FOG
AUBURN +       LGT RAIN  54  52  94 NE5       29.97S
FORT WAYNE     DRIZZLE   55  52  89 NE10      29.95F
HUNTINGTON +   CLOUDY    55  52  89 N6        29.95F
KENDALLVILLE + DRIZZLE   53  49  86 CALM      29.97F

$$

INZ028-029-035-036-043>045-051>053-242200-
WEST CENTRAL INDIANA

CITY           SKY/WX    TMP DP  RH WIND       PRES   REMARKS
CRAWFORDSVL +  CLOUDY    55  53  95 N7        29.94F
GREENCASTLE +  CLOUDY    54  52  94 N7        29.94S
LAFAYETTE      CLOUDY    59  52  77 N12       29.94F
TERRE HAUTE    CLOUDY    59  52  77 NE7       29.94S

$$

INZ030>032-037>040-046>048-054>057-064-065-242200-
CENTRAL INDIANA

CITY           SKY/WX    TMP DP  RH WIND       PRES   REMARKS
COLUMBUS       CLOUDY    55 N/A N/A CALM      29.92S
FISHERS *+     CLOUDY    54  54 100 N6        29.93F
FRANKFORT +    CLOUDY    58  55  88 N8        29.96S
GREENWOOD *+   CLOUDY    55  53  91 N7        29.92F
INDIANAPOLIS   LGT RAIN  56  52  86 N9        29.92F
-EAGLE CREEK   LGT RAIN  56  53  90 N3        29.92F
KOKOMO +       CLOUDY    55  53  93 NE7       29.95F
MARION +       CLOUDY    55  50  84 CALM      29.94F
MT COMFORT *+  CLOUDY    54  54 100 N9        29.92F
SHELBYVILLE    LGT RAIN  57  52  83 NE6       29.91S
ZIONSVILLE +   CLOUDY    54  53  98 N6        29.94S

$$

INZ033-034-041-042-049-050-058-059-242200-
EAST CENTRAL INDIANA

CITY           SKY/WX    TMP DP  RH WIND       PRES   REMARKS
MUNCIE         LGT RAIN  56  53  90 NE6       29.93F
RICHMOND +     CLOUDY    52  52 100 NE6       29.92F FOG

$$

INZ060-061-067>069-081>083-085>088-242200-
SOUTHWEST INDIANA

CITY           SKY/WX    TMP DP  RH WIND       PRES   REMARKS
EVANSVILLE     CLOUDY    58  54  86 N12       29.93F
HUNTINGBURG +  CLOUDY    57  54  88 NW9       29.91F
WASHINGTON +   CLOUDY    56  54  91 N13       29.92F

$$

INZ062-063-066-070>080-084-089>092-242200-
SOUTH CENTRAL AND SOUTHEAST INDIANA

CITY           SKY/WX    TMP DP  RH WIND       PRES   REMARKS
BATESVILLE +   PTSUNNY   54  54 100 MISG      29.91S FOG
BEDFORD +      CLOUDY    55  52  88 N5        29.91F
BLOOMINGTON    LGT RAIN  56  54  93 N6        29.92S FOG
FRENCH LICK *+ CLOUDY    55 N/A N/A CALM      29.92S
MADISON *+     CLOUDY    55  54  94 CALM      29.91F
NORTH VERNON + LGT RAIN  54  54 100 N5        29.91F
SEYMOUR +      CLOUDY    57  55  94 N6        29.90F

$$




USA.gov is the U.S. government's official web portal to all federal, state and local government web resources and services.